When you browse on this site, cookies collect data to enhance your experience and personalize the content and advertising you see.
Visit our Privacy Policy to learn more. By continuing to use the site, you agree to this use of cookies and data.
  • în România
  • Lista ţărilor
  • Pe 7 zile
  • Temperatura apei
  • Hartă satelitară
  • Meteo pe hartă
  • Widget-uri
  • user-avatar
    Intrare

    Meteo pe oră la Shiraz

    Astăzi, 22 Iulie, Luni

    Timp Temperatura Precipitaţii Vânt Presiune Umiditate
    00:00 +28°C° 0 mm 2 m/s 634 mmHg 14%
    01:00 +28°C° 0 mm 2 m/s 634 mmHg 13%
    02:00 +28°C° 0 mm 3 m/s 633 mmHg 14%
    03:00 +27°C° 0 mm 3 m/s 633 mmHg 16%
    04:00 +27°C° 0 mm 3 m/s 633 mmHg 17%
    05:00 +27°C° 0 mm 3 m/s 634 mmHg 18%
    06:00 +28°C° 0 mm 2 m/s 634 mmHg 19%
    07:00 +28°C° 0 mm 2 m/s 635 mmHg 19%
    08:00 +31°C° 0 mm 3 m/s 635 mmHg 17%
    09:00 +34°C° 0 mm 3 m/s 636 mmHg 15%
    10:00 +36°C° 0 mm 4 m/s 636 mmHg 12%
    11:00 +38°C° 0 mm 4 m/s 636 mmHg 11%
    12:00 +40°C° 0 mm 5 m/s 636 mmHg 9%
    13:00 +42°C° 0 mm 5 m/s 637 mmHg 8%
    14:00 +42°C° 0 mm 5 m/s 636 mmHg 7%
    15:00 +42°C° 0 mm 5 m/s 636 mmHg 7%
    16:00 +42°C° 0 mm 5 m/s 636 mmHg 7%
    17:00 +41°C° 0 mm 5 m/s 635 mmHg 8%
    18:00 +40°C° 0 mm 5 m/s 635 mmHg 10%
    19:00 +37°C° 0 mm 5 m/s 635 mmHg 11%
    20:00 +35°C° 0 mm 4 m/s 634 mmHg 15%
    21:00 +31°C° 0 mm 3 m/s 634 mmHg 18%
    22:00 +29°C° 0 mm 1 m/s 634 mmHg 21%
    23:00 +28°C° 0 mm 1 m/s 633 mmHg 20%

    Mâine, 23 Iulie, Marţi

    Timp Temperatura Precipitaţii Vânt Presiune Umiditate
    00:00 +28°C° 0 mm 2 m/s 633 mmHg 19%
    01:00 +27°C° 0 mm 2 m/s 633 mmHg 19%
    02:00 +27°C° 0 mm 2 m/s 632 mmHg 19%
    03:00 +26°C° 0 mm 2 m/s 632 mmHg 19%
    04:00 +26°C° 0 mm 2 m/s 632 mmHg 19%
    05:00 +27°C° 0 mm 2 m/s 633 mmHg 18%
    06:00 +28°C° 0 mm 2 m/s 633 mmHg 18%
    07:00 +29°C° 0 mm 2 m/s 634 mmHg 17%
    08:00 +31°C° 0 mm 3 m/s 635 mmHg 15%
    09:00 +34°C° 0 mm 3 m/s 635 mmHg 13%
    10:00 +37°C° 0 mm 4 m/s 636 mmHg 11%
    11:00 +38°C° 0 mm 3 m/s 636 mmHg 10%
    12:00 +39°C° 0 mm 2 m/s 636 mmHg 9%
    13:00 +40°C° 0 mm 2 m/s 636 mmHg 8%
    14:00 +40°C° 0 mm 2 m/s 636 mmHg 8%
    15:00 +40°C° 0 mm 1 m/s 635 mmHg 7%
    16:00 +41°C° 0 mm 1 m/s 635 mmHg 7%
    17:00 +39°C° 0 mm 2 m/s 635 mmHg 12%
    18:00 +37°C° 0 mm 2 m/s 634 mmHg 18%
    19:00 +35°C° 0 mm 3 m/s 634 mmHg 23%
    20:00 +33°C° 0 mm 3 m/s 634 mmHg 30%
    21:00 +30°C° 0 mm 2 m/s 634 mmHg 37%
    22:00 +28°C° 0 mm 1 m/s 634 mmHg 44%
    23:00 +28°C° 0 mm 1 m/s 633 mmHg 43%

    Poimâine, 24 Iulie, Miercuri

    Timp Temperatura Precipitaţii Vânt Presiune Umiditate
    00:00 +27°C° 0 mm 1 m/s 633 mmHg 42%
    01:00 +26°C° 0 mm 1 m/s 633 mmHg 41%
    02:00 +26°C° 0 mm 1 m/s 633 mmHg 37%
    03:00 +25°C° 0 mm 1 m/s 632 mmHg 34%
    04:00 +24°C° 0 mm 1 m/s 632 mmHg 30%
    05:00 +26°C° 0 mm 1 m/s 633 mmHg 26%
    06:00 +27°C° 0 mm 1 m/s 634 mmHg 22%
    07:00 +28°C° 0 mm 1 m/s 635 mmHg 18%
    08:00 +31°C° 0 mm 1 m/s 635 mmHg 15%
    09:00 +33°C° 0 mm 1 m/s 636 mmHg 11%
    10:00 +35°C° 0 mm 1 m/s 637 mmHg 8%
    11:00 +38°C° 0 mm 2 m/s 637 mmHg 8%
    12:00 +39°C° 0 mm 2 m/s 637 mmHg 7%
    13:00 +40°C° 0 mm 3 m/s 637 mmHg 7%
    14:00 +42°C° 0 mm 3 m/s 636 mmHg 7%
    15:00 +41°C° 0 mm 2 m/s 636 mmHg 7%
    16:00 +41°C° 0 mm 2 m/s 636 mmHg 6%
    17:00 +40°C° 0 mm 2 m/s 635 mmHg 9%
    18:00 +38°C° 0 mm 3 m/s 635 mmHg 12%
    19:00 +37°C° 0 mm 4 m/s 635 mmHg 15%
    20:00 +35°C° 0 mm 3 m/s 635 mmHg 24%
    21:00 +31°C° 0 mm 3 m/s 634 mmHg 32%
    22:00 +28°C° 0 mm 2 m/s 634 mmHg 40%
    23:00 +27°C° 0 mm 2 m/s 634 mmHg 36%

    25 Iulie, Joi

    Timp Temperatura Precipitaţii Vânt Presiune Umiditate
    00:00 +26°C° 0 mm 1 m/s 633 mmHg 31%
    01:00 +25°C° 0 mm 1 m/s 633 mmHg 26%
    02:00 +25°C° 0 mm 1 m/s 632 mmHg 23%
    03:00 +24°C° 0 mm 1 m/s 632 mmHg 20%
    04:00 +24°C° 0 mm 1 m/s 632 mmHg 17%
    05:00 +25°C° 0 mm 1 m/s 633 mmHg 16%
    06:00 +26°C° 0 mm 1 m/s 634 mmHg 15%
    07:00 +28°C° 0 mm 1 m/s 635 mmHg 14%
    08:00 +30°C° 0 mm 1 m/s 636 mmHg 12%
    09:00 +33°C° 0 mm 1 m/s 636 mmHg 9%
    10:00 +37°C° 0 mm 2 m/s 637 mmHg 7%
    11:00 +38°C° 0 mm 2 m/s 637 mmHg 6%
    12:00 +39°C° 0 mm 3 m/s 637 mmHg 6%
    13:00 +42°C° 0 mm 3 m/s 637 mmHg 6%
    14:00 +42°C° 0 mm 3 m/s 637 mmHg 6%
    15:00 +43°C° 0 mm 3 m/s 636 mmHg 6%
    16:00 +43°C° 0 mm 3 m/s 636 mmHg 6%
    17:00 +40°C° 0 mm 3 m/s 635 mmHg 9%
    18:00 +38°C° 0 mm 4 m/s 635 mmHg 12%
    19:00 +37°C° 0 mm 4 m/s 634 mmHg 15%
    20:00 +34°C° 0 mm 4 m/s 634 mmHg 21%
    21:00 +31°C° 0 mm 3 m/s 634 mmHg 26%
    22:00 +29°C° 0 mm 3 m/s 634 mmHg 31%
    23:00 +28°C° 0 mm 2 m/s 633 mmHg 31%

    26 Iulie, Vineri

    Timp Temperatura Precipitaţii Vânt Presiune Umiditate
    00:00 +27°C° 0 mm 2 m/s 633 mmHg 31%
    01:00 +26°C° 0 mm 1 m/s 632 mmHg 31%
    02:00 +25°C° 0 mm 1 m/s 632 mmHg 30%
    03:00 +25°C° 0 mm 1 m/s 632 mmHg 28%
    04:00 +24°C° 0 mm 1 m/s 631 mmHg 27%
    05:00 +25°C° 0 mm 1 m/s 632 mmHg 24%
    06:00 +27°C° 0 mm 1 m/s 633 mmHg 21%
    07:00 +28°C° 0 mm 1 m/s 634 mmHg 18%
    08:00 +31°C° 0 mm 1 m/s 635 mmHg 15%
    09:00 +33°C° 0 mm 1 m/s 636 mmHg 12%
    10:00 +36°C° 0 mm 1 m/s 636 mmHg 10%
    11:00 +38°C° 0 mm 2 m/s 636 mmHg 9%
    12:00 +39°C° 0 mm 2 m/s 636 mmHg 9%
    13:00 +40°C° 0 mm 3 m/s 636 mmHg 8%
    14:00 +42°C° 0 mm 3 m/s 635 mmHg 8%
    15:00 +41°C° 0 mm 2 m/s 635 mmHg 8%
    16:00 +41°C° 0 mm 2 m/s 634 mmHg 7%
    17:00 +40°C° 0 mm 2 m/s 634 mmHg 9%
    18:00 +38°C° 0 mm 2 m/s 634 mmHg 11%
    19:00 +36°C° 0 mm 3 m/s 633 mmHg 13%
    20:00 +34°C° 0 mm 2 m/s 633 mmHg 19%
    21:00 +31°C° 0 mm 2 m/s 633 mmHg 25%
    22:00 +28°C° 0 mm 1 m/s 632 mmHg 31%
    23:00 +27°C° 0 mm 1 m/s 632 mmHg 31%

    27 Iulie, Sâmbătă

    Timp Temperatura Precipitaţii Vânt Presiune Umiditate
    00:00 +27°C° 0 mm 1 m/s 631 mmHg 31%
    01:00 +26°C° 0 mm 1 m/s 631 mmHg 31%
    02:00 +25°C° 0 mm 1 m/s 631 mmHg 30%
    03:00 +24°C° 0 mm 1 m/s 630 mmHg 30%
    04:00 +24°C° 0 mm 1 m/s 630 mmHg 29%
    05:00 +25°C° 0 mm 1 m/s 631 mmHg 27%
    06:00 +27°C° 0 mm 1 m/s 632 mmHg 24%
    07:00 +28°C° 0 mm 1 m/s 633 mmHg 22%
    08:00 +31°C° 0 mm 1 m/s 633 mmHg 18%
    09:00 +33°C° 0 mm 1 m/s 634 mmHg 14%
    10:00 +36°C° 0 mm 1 m/s 635 mmHg 11%
    11:00 +37°C° 0 mm 1 m/s 635 mmHg 10%
    12:00 +39°C° 0 mm 1 m/s 635 mmHg 9%
    13:00 +40°C° 0 mm 1 m/s 634 mmHg 8%
    14:00 +41°C° 0 mm 1 m/s 634 mmHg 8%
    15:00 +41°C° 0 mm 2 m/s 634 mmHg 8%
    16:00 +41°C° 0 mm 2 m/s 633 mmHg 8%
    17:00 +39°C° 0 mm 3 m/s 633 mmHg 13%
    18:00 +39°C° 0 mm 5 m/s 632 mmHg 18%
    19:00 +36°C° 0 mm 6 m/s 632 mmHg 23%
    20:00 +34°C° 0 mm 4 m/s 631 mmHg 28%
    21:00 +30°C° 0 mm 3 m/s 631 mmHg 32%
    22:00 +28°C° 0 mm 1 m/s 631 mmHg 36%
    23:00 +27°C° 0 mm 1 m/s 631 mmHg 37%
    Arată mai mult